PTI737 VHHH-ZHHH

Flight info

Callsign PTI737
Flight time 1h 24m
Altitude 40100
Route BEKOL A461 BUBDA W56 UPMAT UPMAT1T
Aircraft B737/M-SDE2E3FGHIRWXY/LB1

Departure

Time 2026-05-08 02:53
Airport Hong Kong International Airport (VHHH)

Arrival

Time 2026-05-08 04:17
Airport Wuhan Tianhe International Airport (ZHHH)
Time Latitude Longitude Altitude Speed Heading
2026-05-08 02:22 22.31069 113.91341 33 ft 0 kts 251°
2026-05-08 02:44 22.31070 113.91344 60 ft 3 kts 251°
2026-05-08 02:45 22.31079 113.91372 33 ft 4 kts 251°
2026-05-08 02:45 22.31086 113.91395 30 ft 3 kts 252°
2026-05-08 02:45 22.31088 113.91421 29 ft 4 kts 294°
2026-05-08 02:45 22.31073 113.91442 30 ft 4 kts 330°
2026-05-08 02:46 22.31049 113.91453 30 ft 4 kts 341°
2026-05-08 02:46 22.31024 113.91463 30 ft 4 kts 341°
2026-05-08 02:46 22.30998 113.91472 29 ft 4 kts 341°
2026-05-08 02:46 22.30972 113.91482 29 ft 4 kts 341°
2026-05-08 02:47 22.30952 113.91489 30 ft 4 kts 341°
2026-05-08 02:47 22.30940 113.91494 30 ft 0 kts 341°
2026-05-08 02:49 22.30994 113.91471 29 ft 19 kts 336°
2026-05-08 02:49 22.31116 113.91424 31 ft 17 kts 351°
2026-05-08 02:49 22.31232 113.91388 31 ft 21 kts 340°
2026-05-08 02:49 22.31375 113.91316 31 ft 21 kts 304°
2026-05-08 02:50 22.31354 113.91170 31 ft 20 kts 253°
2026-05-08 02:50 22.31310 113.91030 31 ft 21 kts 249°
2026-05-08 02:50 22.31233 113.90822 31 ft 32 kts 249°
2026-05-08 02:50 22.31162 113.90602 31 ft 30 kts 253°
2026-05-08 02:51 22.31105 113.90392 31 ft 28 kts 250°
2026-05-08 02:51 22.31041 113.90200 31 ft 26 kts 250°
2026-05-08 02:51 22.30981 113.90021 29 ft 24 kts 250°
2026-05-08 02:51 22.30933 113.89879 31 ft 16 kts 249°
2026-05-08 02:52 22.30945 113.89812 31 ft 8 kts 337°
2026-05-08 02:52 22.31069 113.89779 29 ft 20 kts 27°
2026-05-08 02:52 22.31183 113.90080 29 ft 93 kts 70°
2026-05-08 02:52 22.31507 113.91100 115 ft 185 kts 69°
2026-05-08 02:53 22.31915 113.92398 1591 ft 178 kts 70°
2026-05-08 02:53 22.32349 113.93735 2802 ft 203 kts 69°
2026-05-08 02:53 22.32838 113.95239 3674 ft 221 kts 70°
2026-05-08 02:53 22.33383 113.96828 4780 ft 229 kts 63°
2026-05-08 02:54 22.34239 113.98293 5914 ft 233 kts 54°
2026-05-08 02:54 22.35174 113.99743 7037 ft 238 kts 54°
2026-05-08 02:54 22.36122 114.01224 8081 ft 242 kts 54°
2026-05-08 02:54 22.37087 114.02746 9100 ft 248 kts 54°
2026-05-08 02:55 22.38070 114.04305 10134 ft 253 kts 55°
2026-05-08 02:55 22.39940 114.07605 12013 ft 266 kts 75°
2026-05-08 02:55 22.39964 114.09628 12732 ft 283 kts 106°
2026-05-08 02:56 22.39229 114.11723 13069 ft 313 kts 115°
2026-05-08 02:56 22.38300 114.13905 13854 ft 324 kts 116°
2026-05-08 02:56 22.37345 114.16132 14766 ft 329 kts 115°
2026-05-08 02:56 22.36400 114.18398 15707 ft 333 kts 115°
2026-05-08 02:57 22.35461 114.20700 16627 ft 338 kts 114°
2026-05-08 02:57 22.34512 114.23048 17524 ft 344 kts 114°
2026-05-08 02:57 22.33809 114.25530 18355 ft 351 kts 95°
2026-05-08 02:57 22.34032 114.28145 19165 ft 352 kts 71°
2026-05-08 02:58 22.35102 114.30488 19979 ft 351 kts 53°
2026-05-08 02:58 22.36563 114.32611 20810 ft 353 kts 46°
2026-05-08 02:58 22.38505 114.34191 21565 ft 351 kts 20°
2026-05-08 02:58 22.40839 114.34866 22420 ft 347 kts
2026-05-08 02:59 22.43240 114.34737 23225 ft 347 kts 349°
2026-05-08 02:59 22.45637 114.34277 23935 ft 351 kts 346°
2026-05-08 02:59 22.47987 114.33558 24556 ft 352 kts 330°
2026-05-08 02:59 22.49948 114.32005 25231 ft 351 kts 311°
2026-05-08 03:00 22.51374 114.29872 25935 ft 352 kts 296°
2026-05-08 03:00 22.52147 114.27362 26600 ft 355 kts 282°
2026-05-08 03:00 22.52567 114.24715 27269 ft 359 kts 279°
2026-05-08 03:00 22.52947 114.22027 27930 ft 363 kts 280°
2026-05-08 03:01 22.53351 114.19316 28580 ft 367 kts 280°
2026-05-08 03:01 22.53847 114.16597 29218 ft 371 kts 289°
2026-05-08 03:01 22.55047 114.14125 29831 ft 375 kts 307°
2026-05-08 03:01 22.56871 114.12100 30408 ft 380 kts 322°
2026-05-08 03:02 22.59167 114.10656 30981 ft 383 kts 331°
2026-05-08 03:02 22.61579 114.09412 31549 ft 386 kts 332°
2026-05-08 03:02 22.64030 114.08205 32063 ft 388 kts 332°
2026-05-08 03:02 22.66491 114.06996 32585 ft 390 kts 332°
2026-05-08 03:03 22.68963 114.05765 33079 ft 392 kts 331°
2026-05-08 03:03 22.71438 114.04517 33558 ft 393 kts 330°
2026-05-08 03:03 22.73920 114.03253 34012 ft 395 kts 330°
2026-05-08 03:03 22.76408 114.01979 34403 ft 397 kts 330°
2026-05-08 03:04 22.78907 114.00696 34763 ft 399 kts 330°
2026-05-08 03:04 22.81419 113.99405 35128 ft 400 kts 330°
2026-05-08 03:04 22.83941 113.98110 35491 ft 402 kts 330°
2026-05-08 03:04 22.86470 113.96810 35825 ft 403 kts 330°
2026-05-08 03:05 22.89013 113.95503 36130 ft 405 kts 330°
2026-05-08 03:05 22.91562 113.94187 36435 ft 407 kts 330°
2026-05-08 03:05 22.94123 113.92856 36729 ft 409 kts 330°
2026-05-08 03:05 22.96689 113.91519 37015 ft 410 kts 330°
2026-05-08 03:06 22.99267 113.90176 37292 ft 412 kts 330°
2026-05-08 03:06 23.01820 113.88846 37557 ft 413 kts 330°
2026-05-08 03:06 23.04454 113.87474 37819 ft 415 kts 330°
2026-05-08 03:06 23.07059 113.86117 38080 ft 416 kts 330°
2026-05-08 03:07 23.09677 113.84781 38422 ft 416 kts 333°
2026-05-08 03:07 23.12371 113.83632 38810 ft 416 kts 335°
2026-05-08 03:07 23.15053 113.82582 39116 ft 415 kts 335°
2026-05-08 03:07 23.17774 113.81545 39336 ft 415 kts 335°
2026-05-08 03:08 23.20506 113.80504 39515 ft 417 kts 335°
2026-05-08 03:08 23.23280 113.79439 39733 ft 417 kts 335°
2026-05-08 03:08 23.25973 113.78396 39987 ft 416 kts 335°
2026-05-08 03:08 23.28704 113.77329 40111 ft 419 kts 335°
2026-05-08 03:09 23.31460 113.76246 40115 ft 424 kts 335°
2026-05-08 03:09 23.36147 113.74397 40120 ft 431 kts 335°
2026-05-08 03:10 23.41834 113.72151 40122 ft 437 kts 335°
2026-05-08 03:10 23.48443 113.69545 40101 ft 434 kts 335°
2026-05-08 03:11 23.54099 113.67311 40110 ft 431 kts 335°
2026-05-08 03:11 23.58811 113.65447 40115 ft 429 kts 335°
2026-05-08 03:12 23.64426 113.63223 40118 ft 429 kts 335°
2026-05-08 03:12 23.70041 113.60996 40126 ft 430 kts 335°
2026-05-08 03:13 23.75673 113.58761 40147 ft 431 kts 335°
2026-05-08 03:13 23.81306 113.56524 40137 ft 433 kts 335°
2026-05-08 03:14 23.86973 113.54272 40137 ft 434 kts 335°
2026-05-08 03:14 23.92656 113.52011 40136 ft 434 kts 335°
2026-05-08 03:15 23.98337 113.49748 40133 ft 435 kts 335°
2026-05-08 03:15 24.04028 113.47480 40135 ft 435 kts 335°
2026-05-08 03:16 24.09718 113.45209 40150 ft 436 kts 335°
2026-05-08 03:16 24.15420 113.42933 40152 ft 436 kts 335°
2026-05-08 03:17 24.21416 113.41548 40146 ft 448 kts 351°
2026-05-08 03:17 24.27655 113.41710 40153 ft 453 kts 356°
2026-05-08 03:18 24.33951 113.41979 40150 ft 452 kts 355°
2026-05-08 03:18 24.40246 113.42154 40170 ft 453 kts 355°
2026-05-08 03:19 24.46545 113.42324 40154 ft 453 kts 355°
2026-05-08 03:19 24.52837 113.42505 40175 ft 452 kts 355°
2026-05-08 03:20 24.59136 113.42689 40167 ft 453 kts 355°
2026-05-08 03:20 24.65425 113.42871 40190 ft 452 kts 355°
2026-05-08 03:21 24.71716 113.43051 40184 ft 452 kts 355°
2026-05-08 03:21 24.78009 113.43233 40170 ft 452 kts 355°
2026-05-08 03:22 24.84289 113.43415 40182 ft 452 kts 355°
2026-05-08 03:22 24.90582 113.43596 40179 ft 452 kts 355°
2026-05-08 03:23 24.96872 113.43778 40196 ft 452 kts 355°
2026-05-08 03:23 25.03165 113.43960 40184 ft 452 kts 355°
2026-05-08 03:24 25.09451 113.44142 40197 ft 452 kts 355°
2026-05-08 03:24 25.15743 113.44325 40194 ft 452 kts 355°
2026-05-08 03:25 25.22033 113.44508 40220 ft 452 kts 355°
2026-05-08 03:25 25.28314 113.44690 40223 ft 451 kts 355°
2026-05-08 03:26 25.34590 113.44873 40210 ft 452 kts 355°
2026-05-08 03:26 25.40874 113.45056 40227 ft 452 kts 354°
2026-05-08 03:27 25.47152 113.45239 40203 ft 451 kts 355°
2026-05-08 03:27 25.53417 113.45423 40232 ft 450 kts 354°
2026-05-08 03:28 25.59685 113.45605 40223 ft 450 kts 354°
2026-05-08 03:28 25.65951 113.45788 40237 ft 451 kts 354°
2026-05-08 03:29 25.72234 113.45972 40243 ft 451 kts 354°
2026-05-08 03:29 25.78513 113.46157 40221 ft 451 kts 354°
2026-05-08 03:30 25.87937 113.46403 40238 ft 450 kts 352°
2026-05-08 03:31 26.00425 113.45909 40233 ft 449 kts 350°
2026-05-08 03:32 26.09794 113.45511 40206 ft 449 kts 350°
2026-05-08 03:32 26.16044 113.45269 40235 ft 450 kts 350°
2026-05-08 03:33 26.22311 113.45028 40235 ft 451 kts 350°
2026-05-08 03:33 26.28577 113.44786 40236 ft 452 kts 350°
2026-05-08 03:34 26.34873 113.44542 40230 ft 452 kts 350°
2026-05-08 03:34 26.41161 113.44298 40227 ft 452 kts 350°
2026-05-08 03:35 26.47410 113.44055 40227 ft 452 kts 350°
2026-05-08 03:35 26.53737 113.43810 40230 ft 452 kts 350°
2026-05-08 03:36 26.60023 113.43572 40229 ft 452 kts 350°
2026-05-08 03:36 26.66270 113.43337 40241 ft 452 kts 350°
2026-05-08 03:37 26.72556 113.43099 40233 ft 452 kts 350°
2026-05-08 03:37 26.78846 113.42860 40222 ft 452 kts 350°
2026-05-08 03:38 26.85172 113.42620 40238 ft 452 kts 349°
2026-05-08 03:38 26.91424 113.42381 40238 ft 453 kts 350°
2026-05-08 03:39 26.97735 113.42140 40241 ft 454 kts 349°
2026-05-08 03:39 27.04051 113.41900 40236 ft 454 kts 349°
2026-05-08 03:40 27.10367 113.41659 40226 ft 454 kts 349°
2026-05-08 03:40 27.16669 113.41419 40237 ft 453 kts 349°
2026-05-08 03:41 27.22957 113.41178 40247 ft 452 kts 349°
2026-05-08 03:41 27.29240 113.40937 40237 ft 451 kts 349°
2026-05-08 03:42 27.35522 113.40751 40238 ft 453 kts 351°
2026-05-08 03:42 27.41838 113.40894 40236 ft 455 kts 352°
2026-05-08 03:43 27.48158 113.41073 40263 ft 454 kts 352°
2026-05-08 03:43 27.54475 113.41203 40249 ft 454 kts 351°
2026-05-08 03:44 27.60784 113.41315 40244 ft 454 kts 351°
2026-05-08 03:44 27.67107 113.41484 40248 ft 457 kts 354°
2026-05-08 03:45 27.73470 113.42050 40239 ft 459 kts 355°
2026-05-08 03:45 27.79843 113.42646 40255 ft 459 kts 354°
2026-05-08 03:46 27.86215 113.43202 40246 ft 460 kts 355°
2026-05-08 03:46 27.92587 113.43778 40242 ft 459 kts 355°
2026-05-08 03:47 27.98955 113.44333 40241 ft 459 kts 354°
2026-05-08 03:47 28.05324 113.44914 40256 ft 460 kts 355°
2026-05-08 03:48 28.11696 113.45506 40252 ft 458 kts 353°
2026-05-08 03:48 28.18058 113.45894 40238 ft 459 kts 353°
2026-05-08 03:49 28.24432 113.46312 40236 ft 459 kts 353°
2026-05-08 03:49 28.30805 113.46767 40268 ft 459 kts 353°
2026-05-08 03:50 28.37176 113.47217 40255 ft 459 kts 353°
2026-05-08 03:50 28.42863 113.47619 40250 ft 458 kts 353°
2026-05-08 03:51 28.49222 113.48084 40262 ft 458 kts 353°
2026-05-08 03:51 28.55593 113.48552 40293 ft 459 kts 353°
2026-05-08 03:52 28.61968 113.49019 40274 ft 459 kts 353°
2026-05-08 03:52 28.68347 113.49487 40253 ft 459 kts 353°
2026-05-08 03:53 28.74720 113.49955 40257 ft 459 kts 353°
2026-05-08 03:53 28.81048 113.50414 40256 ft 458 kts 353°
2026-05-08 03:54 28.87405 113.50865 40267 ft 458 kts 353°
2026-05-08 03:54 28.93769 113.51318 40261 ft 458 kts 353°
2026-05-08 03:55 29.00143 113.51772 40262 ft 459 kts 353°
2026-05-08 03:55 29.06510 113.52229 40261 ft 458 kts 353°
2026-05-08 03:56 29.12851 113.52684 40267 ft 458 kts 353°
2026-05-08 03:56 29.19206 113.53139 40270 ft 457 kts 353°
2026-05-08 03:57 29.25559 113.53595 40269 ft 457 kts 353°
2026-05-08 03:57 29.28734 113.53824 40073 ft 460 kts 353°
2026-05-08 03:57 29.31934 113.54076 39405 ft 460 kts 353°
2026-05-08 03:57 29.35124 113.54356 38801 ft 459 kts 353°
2026-05-08 03:58 29.38313 113.54643 37973 ft 460 kts 353°
2026-05-08 03:58 29.41505 113.54931 37241 ft 460 kts 353°
2026-05-08 03:58 29.44690 113.55217 36494 ft 460 kts 353°
2026-05-08 03:58 29.47884 113.55500 35703 ft 461 kts 353°
2026-05-08 03:59 29.51089 113.55780 34823 ft 464 kts 354°
2026-05-08 03:59 29.54325 113.56060 33868 ft 468 kts 354°
2026-05-08 03:59 29.57586 113.56343 32835 ft 471 kts 354°
2026-05-08 03:59 29.60864 113.56630 31820 ft 474 kts 355°
2026-05-08 04:00 29.64160 113.56919 30737 ft 478 kts 355°
2026-05-08 04:00 29.67487 113.57211 29474 ft 481 kts 356°
2026-05-08 04:00 29.70833 113.57506 28145 ft 483 kts 356°
2026-05-08 04:00 29.74187 113.57803 26880 ft 483 kts 357°
2026-05-08 04:01 29.77536 113.58101 25686 ft 482 kts 358°
2026-05-08 04:01 29.80876 113.58398 24591 ft 479 kts 358°
2026-05-08 04:01 29.84186 113.58691 23506 ft 475 kts 359°
2026-05-08 04:01 29.87467 113.58982 22348 ft 470 kts 359°
2026-05-08 04:02 29.90696 113.59268 21334 ft 461 kts 359°
2026-05-08 04:02 29.93865 113.59580 20219 ft 452 kts
2026-05-08 04:02 29.96875 113.60561 19170 ft 450 kts 19°
2026-05-08 04:02 29.99690 113.62030 18101 ft 440 kts 20°
2026-05-08 04:03 30.02443 113.63472 17001 ft 429 kts 20°
2026-05-08 04:03 30.07822 113.66214 14991 ft 420 kts 20°
2026-05-08 04:03 30.10501 113.67551 13989 ft 419 kts 20°
2026-05-08 04:04 30.13168 113.68876 12959 ft 413 kts 22°
2026-05-08 04:04 30.15759 113.70164 11972 ft 399 kts 22°
2026-05-08 04:04 30.18274 113.71416 11124 ft 386 kts 22°
2026-05-08 04:04 30.20642 113.72597 10855 ft 358 kts 22°
2026-05-08 04:05 30.22846 113.73699 10675 ft 334 kts 22°
2026-05-08 04:05 30.24911 113.74732 10497 ft 313 kts 22°
2026-05-08 04:05 30.26845 113.75699 10345 ft 294 kts 23°
2026-05-08 04:05 30.28665 113.76611 10217 ft 276 kts 23°
2026-05-08 04:06 30.30396 113.77478 9914 ft 269 kts 23°
2026-05-08 04:06 30.32105 113.78335 9442 ft 267 kts 23°
2026-05-08 04:06 30.33795 113.79182 9076 ft 263 kts 24°
2026-05-08 04:06 30.35462 113.80018 8709 ft 259 kts 23°
2026-05-08 04:07 30.37098 113.80840 8361 ft 253 kts 23°
2026-05-08 04:07 30.38673 113.81631 8284 ft 242 kts 23°
2026-05-08 04:07 30.40188 113.82392 8165 ft 233 kts 24°
2026-05-08 04:07 30.41488 113.83457 7956 ft 229 kts 49°
2026-05-08 04:08 30.42492 113.84866 7709 ft 229 kts 49°
2026-05-08 04:08 30.43516 113.86277 7454 ft 228 kts 49°
2026-05-08 04:08 30.44542 113.87687 7159 ft 229 kts 49°
2026-05-08 04:08 30.45563 113.89094 6885 ft 228 kts 49°
2026-05-08 04:09 30.46587 113.90502 6603 ft 229 kts 50°
2026-05-08 04:09 30.47620 113.91903 6357 ft 227 kts 47°
2026-05-08 04:09 30.48713 113.93164 6239 ft 218 kts 43°
2026-05-08 04:09 30.49812 113.94333 6145 ft 211 kts 42°
2026-05-08 04:10 30.50887 113.95452 6037 ft 204 kts 42°
2026-05-08 04:10 30.51931 113.96532 5916 ft 198 kts 42°
2026-05-08 04:10 30.52953 113.97586 5823 ft 192 kts 42°
2026-05-08 04:10 30.53956 113.98618 5698 ft 197 kts 42°
2026-05-08 04:11 30.54981 113.99673 5472 ft 197 kts 42°
2026-05-08 04:11 30.56000 114.00723 5237 ft 195 kts 42°
2026-05-08 04:11 30.57018 114.01773 4968 ft 196 kts 42°
2026-05-08 04:11 30.58032 114.02817 4687 ft 193 kts 43°
2026-05-08 04:12 30.59029 114.03845 4444 ft 191 kts 43°
2026-05-08 04:12 30.60030 114.04875 4192 ft 194 kts 43°
2026-05-08 04:12 30.61042 114.05918 3927 ft 195 kts 43°
2026-05-08 04:12 30.62048 114.06953 3675 ft 193 kts 43°
2026-05-08 04:13 30.63064 114.07998 3430 ft 197 kts 43°
2026-05-08 04:13 30.64092 114.09056 3178 ft 197 kts 43°
2026-05-08 04:13 30.65120 114.10114 2890 ft 199 kts 44°
2026-05-08 04:13 30.66131 114.11155 2633 ft 186 kts 44°
2026-05-08 04:14 30.67051 114.12100 2401 ft 167 kts 44°
2026-05-08 04:14 30.67888 114.12961 2172 ft 156 kts 44°
2026-05-08 04:14 30.68654 114.13750 1974 ft 142 kts 44°
2026-05-08 04:14 30.69362 114.14477 1757 ft 133 kts 45°
2026-05-08 04:15 30.70035 114.15177 1476 ft 126 kts 44°
2026-05-08 04:15 30.70697 114.15871 1290 ft 132 kts 43°
2026-05-08 04:15 30.71404 114.16595 1300 ft 137 kts 43°
2026-05-08 04:15 30.72082 114.17282 1249 ft 126 kts 42°
2026-05-08 04:16 30.72757 114.17988 1075 ft 134 kts 43°
2026-05-08 04:16 30.73454 114.18724 886 ft 136 kts 42°
2026-05-08 04:16 30.74155 114.19445 660 ft 138 kts 42°
2026-05-08 04:16 30.74859 114.20161 405 ft 129 kts 40°
2026-05-08 04:17 30.75519 114.20824 212 ft 124 kts 40°
2026-05-08 04:17 30.76155 114.21472 109 ft 114 kts 41°
2026-05-08 04:17 30.76676 114.22002 108 ft 82 kts 42°
2026-05-08 04:17 30.77012 114.22350 107 ft 47 kts 41°
2026-05-08 04:18 30.77204 114.22509 107 ft 30 kts 21°
2026-05-08 04:18 30.77379 114.22522 106 ft 21 kts 292°
2026-05-08 04:18 30.77392 114.22388 106 ft 19 kts 313°
2026-05-08 04:18 30.77489 114.22266 105 ft 21 kts 311°
2026-05-08 04:19 30.77583 114.22141 107 ft 20 kts 311°
2026-05-08 04:19 30.77675 114.22019 106 ft 20 kts 311°
2026-05-08 04:19 30.77758 114.21908 106 ft 17 kts 311°
2026-05-08 04:19 30.77839 114.21808 108 ft 17 kts 316°
2026-05-08 04:20 30.77898 114.21737 109 ft 11 kts 310°
2026-05-08 04:20 30.77946 114.21669 109 ft 11 kts 310°
2026-05-08 04:20 30.77993 114.21603 110 ft 12 kts 310°
2026-05-08 04:20 30.78085 114.21476 111 ft 21 kts 310°
2026-05-08 04:21 30.78160 114.21380 111 ft 15 kts 314°
2026-05-08 04:21 30.78228 114.21293 112 ft 14 kts 312°
2026-05-08 04:21 30.78294 114.21208 110 ft 16 kts 312°
2026-05-08 04:21 30.78308 114.21126 112 ft 17 kts 234°
2026-05-08 04:22 30.78216 114.21036 111 ft 17 kts 219°
2026-05-08 04:22 30.78131 114.20946 111 ft 16 kts 224°
2026-05-08 04:22 30.78048 114.20858 110 ft 16 kts 221°
2026-05-08 04:22 30.77968 114.20775 110 ft 15 kts 221°
2026-05-08 04:23 30.77891 114.20696 109 ft 14 kts 221°
2026-05-08 04:23 30.77817 114.20621 109 ft 14 kts 221°
2026-05-08 04:23 30.77745 114.20549 108 ft 13 kts 221°
2026-05-08 04:23 30.77677 114.20480 107 ft 13 kts 221°
2026-05-08 04:24 30.77611 114.20413 107 ft 12 kts 221°
2026-05-08 04:24 30.77546 114.20347 107 ft 12 kts 221°
2026-05-08 04:24 30.77461 114.20258 106 ft 24 kts 222°
2026-05-08 04:24 30.77331 114.20125 105 ft 24 kts 221°
2026-05-08 04:25 30.77208 114.20000 105 ft 23 kts 221°
2026-05-08 04:25 30.77141 114.19954 104 ft 3 kts 133°
2026-05-08 04:25 30.77076 114.20040 103 ft 14 kts 131°
2026-05-08 04:25 30.77069 114.20050 105 ft 0 kts 131°
2026-05-08 04:26 30.77052 114.20048 104 ft 6 kts 211°
2026-05-08 04:26 30.77022 114.20018 104 ft 4 kts 222°
2026-05-08 04:26 30.77013 114.20009 104 ft 0 kts 222°